Salem, IL

3:14 AM CDT on April 29, 2017 (GMT -0500)
Salem-Leckrone

Weather History for KSLO - March, 2012

Change the Weather History Date:

Thursday, March 15, 2012

  Actual Average Record
Temperature  
Mean Temperature 66 °F -  
Max Temperature 71 °F 54 °F 79 °F (2016)
Min Temperature 62 °F 33 °F 16 °F (1969)
Cooling Degree Days 2    
Growing Degree Days 16 (Base 50)    
Moisture  
Dew Point 57 °F    
Average Humidity 72    
Maximum Humidity 91    
Minimum Humidity 60    
Precipitation  
Precipitation 0.02 in - - ()
Sea Level Pressure  
Sea Level Pressure 30.09 in    
Wind  
Wind Speed 12 mph (SSW)    
Max Wind Speed 16 mph    
Max Gust Speed 23 mph    
Visibility 10 miles    
Events Rain , Thunderstorm    
Averages and records for this station are not official NWS values.
T = Trace of Precipitation, MM = Missing Value Source: NWS Daily Summary

Daily Weather History Graph

Daily Weather History Graph

Search for Another Location

Airport or City:

Trip Planner

Search our weather history database for the weather conditions in past years. The results will help you decide how hot, cold, wet, or windy it might be!

Date:

Astronomy

Mar. 15, 2012 Rise Set
Actual Time 7:06 AM CDT 7:03 PM CDT
Civil Twilight 6:39 AM CDT 7:29 PM CDT
Nautical Twilight 6:09 AM CDT 8:00 PM CDT
Astronomical Twilight 5:37 AM CDT 8:32 PM CDT
Moon 2:30 AM CDT (3/15) 12:24 PM CDT (3/15)
Length of Visible Light 12h 50m
Length of Day
11h 57m
Last Quarter, 43% of the Moon is Illuminated
Mar 15
Last Quarter
Mar 22
New
Mar 30
First Quarter
Apr 6
Full
Apr 13
Last Quarter

Hourly Weather History & Observations

Time (CDT) Temp. Dew Point Humidity Pressure Visibility Wind Dir Wind Speed Gust Speed Precip Events Conditions
12:15 AM 70.2 °F 56.5 °F 62% 30.05 in 10.0 mi SSW 15.0 mph 21.9 mph N/A   Clear
12:35 AM 69.3 °F 56.7 °F 64% 30.05 in 10.0 mi SSW 15.0 mph - N/A   Clear
12:55 AM 68.9 °F 56.8 °F 65% 30.06 in 10.0 mi SSW 15.0 mph 20.7 mph N/A   Clear
1:15 AM 68.2 °F 57.0 °F 67% 30.06 in 10.0 mi SSW 13.8 mph - N/A   Clear
1:35 AM 68.0 °F 57.2 °F 68% 30.07 in 10.0 mi SSW 16.1 mph - N/A   Clear
1:55 AM 68.0 °F 57.2 °F 68% 30.07 in 10.0 mi SSW 13.8 mph 18.4 mph N/A   Clear
2:15 AM 67.3 °F 57.2 °F 70% 30.07 in 10.0 mi SSW 12.7 mph 17.3 mph N/A   Clear
2:35 AM 67.1 °F 57.4 °F 71% 30.08 in 10.0 mi SSW 15.0 mph 20.7 mph N/A   Clear
2:55 AM 66.6 °F 57.4 °F 72% 30.08 in 10.0 mi SSW 11.5 mph - N/A   Clear
3:15 AM 67.3 °F 58.5 °F 73% 30.08 in 10.0 mi SSW 13.8 mph - N/A   Clear
3:35 AM 65.7 °F 57.2 °F 74% 30.08 in 10.0 mi SSW 12.7 mph - N/A   Clear
3:55 AM 65.3 °F 57.2 °F 75% 30.08 in 10.0 mi SSW 11.5 mph - N/A   Clear
4:15 AM 64.9 °F 57.2 °F 76% 30.08 in 10.0 mi SSW 10.4 mph - N/A   Clear
4:35 AM 64.8 °F 57.2 °F 76% 30.08 in 10.0 mi SW 10.4 mph - N/A   Clear
4:55 AM 64.6 °F 57.2 °F 77% 30.09 in 10.0 mi SSW 10.4 mph - N/A   Clear
5:15 AM 64.4 °F 57.2 °F 77% 30.09 in 10.0 mi SSW 10.4 mph - N/A   Clear
5:35 AM 64.0 °F 57.2 °F 78% 30.10 in 10.0 mi SSW 10.4 mph - N/A   Clear
5:55 AM 64.0 °F 57.2 °F 78% 30.10 in 10.0 mi SSW 9.2 mph - N/A   Clear
6:15 AM 63.5 °F 57.2 °F 80% 30.10 in 10.0 mi SSW 8.1 mph - N/A   Clear
6:35 AM 63.1 °F 57.2 °F 81% 30.11 in 10.0 mi SSW 9.2 mph - N/A   Clear
6:55 AM 62.6 °F 57.2 °F 82% 30.11 in 10.0 mi SSW 8.1 mph - N/A   Clear
7:15 AM 62.8 °F 56.8 °F 81% 30.12 in 10.0 mi SSW 8.1 mph - N/A   Clear
7:35 AM 63.0 °F 57.2 °F 81% 30.13 in 10.0 mi SSW 8.1 mph - N/A   Clear
7:55 AM 63.7 °F 57.4 °F 80% 30.13 in 10.0 mi SSW 9.2 mph - N/A   Clear
8:15 AM 64.9 °F 57.7 °F 77% 30.13 in 10.0 mi SSW 10.4 mph - N/A   Scattered Clouds
8:35 AM 66.6 °F 58.1 °F 74% 30.13 in 10.0 mi SSW 10.4 mph - N/A   Mostly Cloudy
8:55 AM 68.0 °F 58.1 °F 71% 30.13 in 10.0 mi SSW 8.1 mph - N/A   Mostly Cloudy
9:15 AM 68.9 °F 57.7 °F 68% 30.13 in 10.0 mi SSW 10.4 mph - N/A   Mostly Cloudy
9:35 AM 70.0 °F 58.1 °F 66% 30.13 in 10.0 mi SSW 10.4 mph - N/A   Scattered Clouds
9:55 AM 70.2 °F 57.6 °F 64% 30.13 in 10.0 mi SSW 8.1 mph - N/A   Mostly Cloudy
10:15 AM 71.1 °F 57.2 °F 61% 30.13 in 10.0 mi SSW 10.4 mph - N/A Thunderstorm Thunderstorm
10:35 AM 71.6 °F 57.2 °F 60% 30.13 in 10.0 mi SSW 8.1 mph - N/A Thunderstorm Thunderstorm
10:55 AM 70.7 °F 58.1 °F 64% 30.14 in 10.0 mi SSW 10.4 mph - N/A Thunderstorm Thunderstorm
11:15 AM 68.5 °F 58.1 °F 69% 30.14 in 10.0 mi South 11.5 mph 17.3 mph N/A Thunderstorm Thunderstorm
11:35 AM 66.4 °F 59.4 °F 78% 30.14 in 10.0 mi SSW 8.1 mph - N/A Thunderstorm Thunderstorm
11:55 AM 65.3 °F 60.8 °F 85% 30.15 in 7.0 mi SSW 9.2 mph - N/A Rain , Thunderstorm Light Thunderstorms and Rain
12:15 PM 64.4 °F 60.8 °F 88% 30.14 in 5.0 mi South 13.8 mph 20.7 mph 0.02 in Rain , Thunderstorm Heavy Thunderstorms and Rain
12:35 PM 64.4 °F 61.7 °F 91% 30.14 in 7.0 mi South 11.5 mph - 0.02 in Rain , Thunderstorm Light Thunderstorms and Rain
12:55 PM 64.9 °F 60.4 °F 85% 30.13 in 10.0 mi SSE 6.9 mph - 0.02 in Thunderstorm Thunderstorm
1:15 PM 65.1 °F 59.5 °F 82% 30.13 in 10.0 mi South 8.1 mph - N/A   Mostly Cloudy
1:35 PM 64.4 °F 57.6 °F 78% 30.12 in 10.0 mi South 6.9 mph - N/A Thunderstorm Overcast
1:55 PM 64.4 °F 56.5 °F 75% 30.13 in 10.0 mi SSW 9.2 mph - N/A   Overcast
2:15 PM 64.9 °F 57.4 °F 76% 30.12 in 10.0 mi SSW 12.7 mph - N/A   Mostly Cloudy
2:35 PM 66.4 °F 57.4 °F 73% 30.10 in 10.0 mi SSW 12.7 mph - N/A   Scattered Clouds
2:55 PM 67.3 °F 56.7 °F 69% 30.10 in 10.0 mi SSW 9.2 mph - N/A   Clear
3:15 PM 68.7 °F 56.1 °F 64% 30.08 in 10.0 mi South 10.4 mph - N/A   Clear
3:35 PM 68.4 °F 55.9 °F 64% 30.08 in 10.0 mi South 10.4 mph 23.0 mph N/A   Clear
3:55 PM 68.4 °F 55.8 °F 64% 30.06 in 10.0 mi South 9.2 mph - N/A   Clear
4:15 PM 68.9 °F 55.4 °F 62% 30.06 in 10.0 mi South 6.9 mph - N/A   Clear
4:35 PM 69.8 °F 55.9 °F 61% 30.03 in 10.0 mi SSW 6.9 mph - N/A   Clear
4:55 PM 69.8 °F 55.9 °F 61% 30.03 in 10.0 mi SSW 12.7 mph - N/A   Clear
5:15 PM 68.5 °F 55.9 °F 64% 30.05 in 10.0 mi South 8.1 mph - N/A   Clear
5:35 PM 68.0 °F 55.8 °F 65% 30.04 in 10.0 mi SSE 6.9 mph - N/A   Clear
5:55 PM 67.5 °F 55.4 °F 65% 30.05 in 10.0 mi SSE 6.9 mph - N/A   Clear
6:15 PM 67.1 °F 55.4 °F 66% 30.05 in 10.0 mi SSE 6.9 mph - N/A   Clear
6:35 PM 66.2 °F 55.4 °F 68% 30.05 in 10.0 mi South 8.1 mph - N/A   Clear
6:55 PM 65.8 °F 55.6 °F 69% 30.06 in 10.0 mi South 5.8 mph - N/A   Clear
7:15 PM 64.9 °F 55.4 °F 71% 30.08 in 10.0 mi South 5.8 mph - N/A Thunderstorm Thunderstorm
7:35 PM 64.8 °F 55.2 °F 71% 30.07 in 10.0 mi South 5.8 mph - N/A Thunderstorm Clear
7:55 PM 64.4 °F 55.0 °F 72% 30.08 in 10.0 mi South 5.8 mph - N/A   Clear
8:15 PM 63.7 °F 55.2 °F 74% 30.08 in 10.0 mi South 9.2 mph - N/A   Mostly Cloudy
8:35 PM 63.3 °F 55.0 °F 74% 30.08 in 10.0 mi South 5.8 mph - N/A   Scattered Clouds
8:55 PM 64.4 °F 55.4 °F 73% 30.08 in 10.0 mi South 3.5 mph - N/A   Clear
9:15 PM 63.7 °F 55.0 °F 73% 30.07 in 10.0 mi SSE 4.6 mph - N/A   Clear
9:35 PM 63.1 °F 55.0 °F 75% 30.07 in 10.0 mi South 6.9 mph - N/A   Clear
9:55 PM 63.3 °F 55.6 °F 76% 30.06 in 10.0 mi South 11.5 mph - N/A   Clear
10:15 PM 63.9 °F 55.4 °F 74% 30.07 in 10.0 mi SSW 10.4 mph - N/A   Clear
10:35 PM 64.4 °F 54.5 °F 70% 30.09 in 10.0 mi SSW 8.1 mph - N/A   Clear
10:55 PM 65.3 °F 53.1 °F 65% 30.09 in 10.0 mi SSW 9.2 mph - N/A   Clear
11:15 PM 64.8 °F 51.1 °F 61% 30.10 in 10.0 mi SSW 4.6 mph - N/A   Clear
11:35 PM 62.6 °F 51.4 °F 67% 30.10 in 10.0 mi Calm Calm - N/A   Clear
11:55 PM 63.0 °F 50.9 °F 65% 30.11 in 10.0 mi SSW 6.9 mph - N/A Thunderstorm Thunderstorm